Springfield, MO

3:46 AM CDT on April 28, 2017 (GMT -0500)
Springfield-Branson Regional

Weather History for KSGF - February, 2014

Change the Weather History Date:

Saturday, February 1, 2014

  Actual Average Record
Temperature  
Mean Temperature 35 °F 34 °F  
Max Temperature 44 °F 45 °F 84 °F (1911)
Min Temperature 25 °F 23 °F -14 °F (1979)
Degree Days  
Heating Degree Days 30 31  
Month to date heating degree days 30 31  
Since 1 July heating degree days 3059 2844  
Cooling Degree Days 0 0  
Month to date cooling degree days 0 0  
Year to date cooling degree days 0 0  
Moisture  
Dew Point 32 °F    
Average Humidity 95    
Maximum Humidity 100    
Minimum Humidity 89    
Precipitation  
Precipitation 0.13 in 0.08 in 2.44 in (1952)
Month to date precipitation 0.13 0.08  
Year to date precipitation 1.42 2.55  
Snow  
Snow T in - - ()
Month to date snowfall T  
Since 1 July snowfall 23.0  
Snow Depth 0.00 in    
Sea Level Pressure  
Sea Level Pressure 29.89 in    
Wind  
Wind Speed 12 mph (NNW)    
Max Wind Speed 23 mph    
Max Gust Speed 27 mph    
Visibility 4 miles    
Events Fog , Rain    
T = Trace of Precipitation, MM = Missing Value Source: NWS Daily Summary

Daily Weather History Graph

Daily Weather History Graph

Search for Another Location

Airport or City:

Trip Planner

Search our weather history database for the weather conditions in past years. The results will help you decide how hot, cold, wet, or windy it might be!

Date:

Astronomy

Feb. 01, 2014 Rise Set
Actual Time 7:16 AM CST 5:38 PM CST
Civil Twilight 6:49 AM CST 6:05 PM CST
Nautical Twilight 6:17 AM CST 6:36 PM CST
Astronomical Twilight 5:47 AM CST 7:07 PM CST
Moon 8:10 AM CST (2/1) 8:09 PM CST (2/1)
Length of Visible Light 11h 16m
Length of Day
10h 21m
Waxing Crescent, 5% of the Moon is Illuminated
Feb 1
Waxing Crescent
Feb 6
First Quarter
Feb 14
Full
Feb 22
Last Quarter
Mar 1
New

Hourly Weather History & Observations

Time (CST) Temp. Windchill Dew Point Humidity Pressure Visibility Wind Dir Wind Speed Gust Speed Precip Events Conditions
12:52 AM 39.9 °F 31.8 °F 37.9 °F 93% 29.81 in 4.0 mi SSE 15.0 mph - 0.00 in   Overcast
1:04 AM 39.9 °F 31.8 °F 39.0 °F 97% 29.77 in 5.0 mi SSE 15.0 mph - N/A   Overcast
1:43 AM 41.0 °F 33.5 °F 39.0 °F 93% 29.77 in 6.0 mi SSE 13.8 mph - N/A   Overcast
1:50 AM 41.0 °F 33.1 °F 39.2 °F 93% 29.76 in 6.0 mi SSE 15.0 mph - N/A   Overcast
1:52 AM 41.0 °F 32.2 °F 39.0 °F 93% 29.78 in 6.0 mi SSE 18.4 mph - N/A   Overcast
2:52 AM 42.1 °F 33.6 °F 39.9 °F 92% 29.74 in 6.0 mi SSE 18.4 mph - N/A   Overcast
3:52 AM 43.0 °F 35.1 °F 41.0 °F 93% 29.74 in 6.0 mi SSE 17.3 mph - N/A   Overcast
4:15 AM 44.1 °F 39.5 °F 41.0 °F 89% 29.74 in 6.0 mi South 8.1 mph - N/A   Overcast
4:25 AM 44.1 °F 39.0 °F 41.0 °F 89% 29.74 in 6.0 mi South 9.2 mph - N/A   Overcast
4:52 AM 43.0 °F 39.5 °F 42.1 °F 97% 29.75 in 6.0 mi SSE 5.8 mph - 0.01 in Rain Light Rain
5:52 AM 44.1 °F 40.1 °F 42.1 °F 93% 29.77 in 5.0 mi WNW 6.9 mph - 0.00 in   Overcast
6:18 AM 41.0 °F 35.8 °F 39.9 °F 96% 29.76 in 1.8 mi WNW 8.1 mph - 0.01 in Rain Rain
6:38 AM 36.0 °F 28.0 °F 35.1 °F 97% 29.78 in 2.5 mi NW 11.5 mph - 0.03 in Rain Light Rain
6:45 AM 35.1 °F 26.4 °F 33.1 °F 92% 29.78 in 4.0 mi NNW 12.7 mph - 0.03 in Rain Light Rain
6:52 AM 34.0 °F 25.0 °F 33.1 °F 96% 29.80 in 5.0 mi NNW 12.7 mph - 0.03 in Rain Light Rain
7:33 AM 33.1 °F 28.7 °F 32.0 °F 96% 29.79 in 7.0 mi East 4.6 mph - 0.03 in Rain Light Rain
7:41 AM 33.1 °F 27.7 °F 32.0 °F 96% 29.78 in 6.0 mi East 5.8 mph - 0.04 in Rain Rain
7:52 AM 33.1 °F 27.7 °F 32.0 °F 96% 29.81 in 4.0 mi ESE 5.8 mph - 0.06 in Rain Rain
8:25 AM 35.1 °F 32.2 °F 34.0 °F 96% 29.81 in 8.0 mi Variable 3.5 mph - 0.00 in Rain Light Rain
8:41 AM 33.1 °F 24.9 °F 32.0 °F 96% 29.82 in 4.0 mi WNW 10.4 mph - 0.00 in Rain Light Rain
8:52 AM 33.1 °F 24.9 °F 32.0 °F 96% 29.85 in 4.0 mi WNW 10.4 mph - 0.01 in Rain Light Rain
9:31 AM 32.0 °F 24.2 °F 30.9 °F 96% 29.84 in 2.0 mi NW 9.2 mph - 0.00 in   Overcast
9:48 AM 32.0 °F 23.0 °F 30.2 °F 93% 29.86 in 1.8 mi NW 11.5 mph - 0.00 in   Overcast
9:52 AM 32.0 °F 23.6 °F 30.9 °F 96% 29.89 in 1.8 mi NW 10.4 mph - 0.00 in   Overcast
10:05 AM 32.0 °F 24.2 °F 30.9 °F 96% 29.87 in 2.0 mi NW 9.2 mph - 0.00 in   Overcast
10:43 AM 32.0 °F 24.2 °F 30.0 °F 92% 29.88 in 1.2 mi NW 9.2 mph - 0.01 in   Overcast
10:52 AM 30.9 °F 21.2 °F 30.0 °F 96% 29.91 in 1.0 mi NW 12.7 mph - 0.01 in   Overcast
11:52 AM 32.0 °F 24.8 °F 30.9 °F 96% 29.91 in 1.5 mi NNW 8.1 mph - 0.01 in   Overcast
12:13 PM 32.0 °F 24.2 °F 30.9 °F 96% 29.89 in 2.5 mi NNW 9.2 mph - N/A   Overcast
12:45 PM 32.0 °F 24.8 °F 30.0 °F 92% 29.89 in 4.0 mi NW 8.1 mph - N/A   Overcast
12:52 PM 32.0 °F 23.6 °F 30.0 °F 92% 29.91 in 5.0 mi NNW 10.4 mph - N/A   Overcast
1:36 PM 30.9 °F 21.7 °F 30.0 °F 96% 29.88 in 1.8 mi NNW 11.5 mph - N/A   Overcast
1:52 PM 30.9 °F 22.2 °F 28.9 °F 92% 29.90 in 1.2 mi North 10.4 mph - N/A   Overcast
2:02 PM 30.9 °F 23.5 °F 30.0 °F 96% 29.87 in 0.5 mi North 8.1 mph - N/A Fog Light Freezing Fog
2:18 PM 30.9 °F 24.3 °F 30.0 °F 96% 29.87 in 0.2 mi North 6.9 mph - N/A Fog Light Freezing Fog
2:32 PM 30.9 °F 25.2 °F 30.0 °F 96% 29.89 in 0.5 mi North 5.8 mph - N/A Fog Light Freezing Fog
2:52 PM 30.9 °F 23.5 °F 30.0 °F 96% 29.92 in 0.5 mi NNW 8.1 mph - N/A Fog Light Freezing Fog
3:15 PM 30.9 °F 24.3 °F 30.0 °F 96% 29.90 in 0.2 mi NNW 6.9 mph - N/A Fog Light Freezing Fog
3:38 PM 30.9 °F 23.5 °F 28.9 °F 92% 29.92 in 0.5 mi NW 8.1 mph - N/A Fog Light Freezing Fog
3:52 PM 30.9 °F 20.7 °F 28.9 °F 92% 29.96 in 0.5 mi NNW 13.8 mph - N/A Fog Light Freezing Fog
4:32 PM 30.0 °F 20.0 °F 28.9 °F 96% 29.95 in 0.2 mi NNW 12.7 mph - N/A Fog Light Freezing Fog
4:52 PM 28.9 °F 18.2 °F 28.0 °F 96% 29.99 in 0.5 mi North 13.8 mph - N/A Fog Light Freezing Fog
5:42 PM 28.9 °F 19.2 °F 27.0 °F 92% 29.96 in 2.0 mi North 11.5 mph - N/A   Overcast
5:52 PM 28.9 °F 20.4 °F 27.0 °F 92% 29.99 in 3.0 mi NNE 9.2 mph - N/A   Overcast
6:22 PM 28.0 °F 18.6 °F 27.0 °F 96% 29.97 in 2.0 mi North 10.4 mph - N/A   Overcast
6:52 PM 28.0 °F 19.3 °F 27.0 °F 96% 30.01 in 5.0 mi North 9.2 mph - N/A   Overcast
7:52 PM 27.0 °F 14.3 °F 26.1 °F 96% 30.06 in 4.0 mi NNW 17.3 mph - N/A   Overcast
8:40 PM 27.0 °F 16.1 °F 25.0 °F 92% 30.04 in 5.0 mi North 12.7 mph - N/A   Overcast
8:52 PM 27.0 °F 14.3 °F 25.0 °F 92% 30.09 in 5.0 mi North 17.3 mph - N/A   Overcast
9:52 PM 27.0 °F 14.7 °F 25.0 °F 92% 30.10 in 5.0 mi North 16.1 mph - N/A   Overcast
10:52 PM 26.1 °F 15.0 °F 24.1 °F 92% 30.13 in 5.0 mi North 12.7 mph - N/A   Overcast
11:52 PM 26.1 °F 14.0 °F 23.0 °F 88% 30.15 in 7.0 mi North 15.0 mph - N/A   Overcast